Flag for Germany Weather past 2 weeks in Kassel, Hesse, Germany

Now
48 °F

Mostly cloudy.


Feels Like: 40 °F
Forecast: 39 / 53 °F
Wind: 28 mph from Northwest

Location: Kassel / Calden

Current Time: Oct 22, 2014 at 5:53:32 PM

Latest Report: Oct 22, 2014 at 5:20 PM


Visibility: N/A

Pressure: 29.89 "Hg

Humidity: 82%

Dew point: 43 °F

Location of KasselLocation

Historic Weather in Kassel — Graph

°F

Kassel temperature yesterday

Maximum temperature yesterday: 55 °F (at 3:50 PM)
Minimum temperature yesterday: 46 °F (at 9:20 PM)
Average temperature yesterday: 52 °F

Past Weeks' High & Low Weather Summary

 TemperatureHumidityPressure
High68 °F (Oct 19, 2:50 PM)100% (Oct 9, 6:50 AM)30.18 "Hg (Oct 9, 6:50 AM)
Low45 °F (Oct 22, 5:50 AM)59% (Oct 15, 3:20 PM)29.47 "Hg (Oct 21, 5:50 PM)
Average57 °F85%29.86 "Hg
* Reported Oct 7 4:20 PM — Oct 22 4:20 PM, Kassel, Weather by CustomWeather, © 2014

Note: Actual official high and low records may vary slightly from our data, if they occured in-between our weather recording intervals... More about our weather records

Advertising

Kassel weather history for previous 24 hours

 ConditionsComfort  
Time TempWeatherWind HumidityBarometerVisibility
4:20 PM
Oct 22
48 °FOvercast.31 mph82%29.86 "Hg6 mi
3:50 PM46 °FMostly cloudy.29 mph87%29.83 "Hg6 mi
3:20 PM46 °FLight rain. Broken clouds.31 mph87%29.83 "Hg6 mi
2:50 PM46 °FLight rain. Mostly cloudy.32 mph87%29.83 "Hg5 mi
2:20 PM46 °FLight rain. Mostly cloudy.32 mph87%29.80 "Hg4 mi
1:50 PM45 °FLight rain. More clouds than sun.31 mph93%29.80 "Hg5 mi
1:20 PM45 °FLight rain. More clouds than sun.22 mph87%29.83 "Hg4 mi
12:50 PM45 °FLight rain. Mostly cloudy.22 mph87%29.83 "HgN/A
12:20 PM45 °FLight rain. Overcast.25 mph87%29.83 "HgN/A
11:50 AM45 °FLight rain. Mostly cloudy.24 mph87%29.83 "HgN/A
11:20 AM45 °FMostly cloudy.24 mph87%29.83 "HgN/A
10:50 AM45 °FDrizzle. More clouds than sun.22 mph87%29.83 "HgN/A
10:20 AM45 °FMore clouds than sun.24 mph81%29.83 "HgN/A
9:50 AM45 °FMore clouds than sun.23 mph87%29.83 "HgN/A
9:20 AM45 °FLight rain. Overcast.22 mph87%29.83 "HgN/A
8:50 AM45 °FMostly cloudy.21 mph81%29.80 "HgN/A
8:20 AM45 °FPassing clouds.22 mph81%29.80 "HgN/A
7:50 AM45 °FPassing clouds.22 mph81%29.80 "HgN/A
7:20 AM45 °FPassing clouds.22 mph81%29.77 "HgN/A
6:50 AM45 °FPassing clouds.24 mph87%29.77 "HgN/A
6:20 AM45 °FMostly cloudy.25 mph87%29.74 "HgN/A
5:50 AM45 °FRain. Mostly cloudy.23 mph87%29.74 "HgN/A
9:50 PM
Oct 21
46 °FPartly cloudy.20 mph82%29.59 "HgN/A
9:20 PM46 °FPartly cloudy.23 mph82%29.56 "HgN/A
8:50 PM50 °FMostly cloudy.22 mph82%29.53 "HgN/A
8:20 PM50 °FLight rain. Mostly cloudy.18 mph82%29.53 "HgN/A
7:50 PM50 °FLight rain. Passing clouds.15 mph88%29.53 "HgN/A
7:20 PM50 °FPassing clouds.13 mph88%29.50 "HgN/A
6:50 PM52 °FRain. Mostly cloudy.23 mph94%29.50 "Hg4 mi
6:20 PM52 °FLight rain. Mostly cloudy.16 mph88%29.47 "HgN/A
5:50 PM54 °FMostly cloudy.16 mph82%29.47 "HgN/A
5:20 PM54 °FBroken clouds.16 mph82%29.50 "HgN/A
Weather by CustomWeather, © 2014

See weather overviewHow to use our weather pages